Вернуться в каталог

DELTA 1 DEB

АктивенPO
NORAD 7940·DEBRIS·🇺🇸 United States

Запущен Jul 23, 1972 с Vandenberg Space Force Base

Loading…

Ближайшие Пролёты (ближайшие 24 часа)

TLE

СвежийSource: Space-Track

Эпоха: Sep 14, 2026, 11:49 UTC

1 07940U 72058CF  26257.49261346  .00000688  00000-0  26461-3 0  9993
2 07940  97.9758 274.8616 0319832 359.7334   0.3620 14.08667884733579

Отслеживайте DELTA 1 DEB в реальном времени с AllMySat

Download on the App Store